Atqasuk Edward Burnell Sr Mem, AK

8:10 AM AKDT on July 27, 2017 (GMT -0800)
Atqasuk Edward Burnell Sr Mem

Weather History for PATQ - May, 2014

Change the Weather History Date:

Thursday, May 15, 2014

  Actual Average (PABR) Record (PABR)
Temperature  
Mean Temperature 36 °F -  
Max Temperature 41 °F 23 °F 39 °F (1984)
Min Temperature 32 °F 12 °F -12 °F (1965)
Degree Days  
Heating Degree Days 28    
Moisture  
Dew Point 34 °F    
Average Humidity 97    
Maximum Humidity 100    
Minimum Humidity 85    
Precipitation  
Precipitation 0.16 in - - ()
Sea Level Pressure  
Sea Level Pressure 30.21 in    
Wind  
Wind Speed 9 mph (SW)    
Max Wind Speed 17 mph    
Max Gust Speed 22 mph    
Visibility 7 miles    
Events Rain , Snow    
Averages and records for this station are not official NWS values.
T = Trace of Precipitation, MM = Missing Value Source: NWS Daily Summary

Daily Weather History Graph

Daily Weather History Graph

Search for Another Location

Airport or City:

Trip Planner

Search our weather history database for the weather conditions in past years. The results will help you decide how hot, cold, wet, or windy it might be!

Date:

Astronomy

May. 15, 2014 Rise Set
Actual Time 2:58 AM AKDT 1:53 AM AKDT
Civil Twilight Sun does not set Sun does not set
Nautical Twilight Sun does not set Sun does not set
Astronomical Twilight Sun does not set Sun does not set
Moon 1:24 AM AKDT (5/15) 4:37 AM AKDT (5/15)
Length of Visible Light 24h 00m
Length of Day
22h 55m
Full, 99% of the Moon is Illuminated
May 15
Full
May 21
Last Quarter
May 28
New
Jun 5
First Quarter
Jun 12
Full

Hourly Weather History & Observations

Time (AKDT) Temp. Windchill Dew Point Humidity Pressure Visibility Wind Dir Wind Speed Gust Speed Precip Events Conditions
12:08 AM 32.0 °F 25.6 °F 32.0 °F 100% 30.30 in 3.0 mi SSW 6.9 mph - 0.00 in Snow Light Snow
12:18 AM 32.0 °F 24.8 °F 32.0 °F 100% 30.30 in 2.5 mi SSW 8.1 mph - 0.00 in Snow Light Snow
12:33 AM 32.0 °F 24.8 °F 32.0 °F 100% 30.30 in 1.8 mi SSW 8.1 mph - 0.01 in Snow Light Snow
12:43 AM 32.0 °F 24.8 °F 32.0 °F 100% 30.30 in 1.2 mi South 8.1 mph - 0.01 in Snow Light Snow
12:56 AM 32.0 °F 24.2 °F 32.0 °F 100% 30.29 in 1.5 mi South 9.2 mph - N/A Snow Light Snow
1:24 AM 32.0 °F 24.2 °F 32.0 °F 100% 30.29 in 2.0 mi SSW 9.2 mph - 0.01 in Snow Light Snow
1:56 AM 32.0 °F 24.2 °F 32.0 °F 100% 30.30 in 2.5 mi South 9.2 mph - 0.01 in Snow Light Snow
2:01 AM 32.0 °F 24.8 °F 32.0 °F 100% 30.28 in 3.0 mi South 8.1 mph - 0.01 in Snow Light Snow
2:48 AM 32.0 °F 24.8 °F 32.0 °F 100% 30.26 in 8.0 mi South 8.1 mph - 0.02 in   Overcast
2:56 AM 32.0 °F 24.8 °F 32.0 °F 100% 30.28 in 8.0 mi South 8.1 mph - 0.02 in   Overcast
3:56 AM 32.9 °F 24.1 °F 32.0 °F 96% 30.26 in 9.0 mi SSW 11.5 mph - 0.02 in Rain Light Rain
4:16 AM 33.8 °F 25.8 °F 32.0 °F 93% 30.24 in 5.0 mi SW 10.4 mph - 0.01 in Rain Light Rain
4:46 AM 33.8 °F 25.3 °F 33.8 °F 100% 30.23 in 8.0 mi SW 11.5 mph - 0.02 in Rain Light Rain
4:56 AM 32.9 °F 24.7 °F 32.0 °F 96% 30.24 in 9.0 mi SSW 10.4 mph - 0.02 in Rain Light Rain
5:56 AM 32.9 °F 25.3 °F 32.9 °F 100% 30.23 in 6.0 mi SSW 9.2 mph - 0.01 in Rain Light Rain
6:56 AM 34.0 °F 26.0 °F 32.9 °F 96% 30.22 in 10.0 mi SSW 10.4 mph - 0.00 in Rain Light Rain
7:49 AM 35.6 °F 27.1 °F 33.8 °F 93% 30.19 in 10.0 mi WSW 12.7 mph - 0.01 in Rain Light Rain
7:56 AM 34.9 °F 26.2 °F 34.0 °F 97% 30.21 in 7.0 mi WSW 12.7 mph - 0.01 in Rain Light Rain
8:43 AM 35.6 °F 28.0 °F 35.6 °F 100% 30.19 in 10.0 mi WSW 10.4 mph - 0.01 in Rain Light Rain
8:56 AM 36.0 °F 29.6 °F 34.9 °F 96% 30.21 in 10.0 mi WSW 8.1 mph - 0.01 in Rain Light Rain
9:08 AM 35.6 °F 29.9 °F 35.6 °F 100% 30.19 in 10.0 mi WSW 6.9 mph - 0.00 in Rain Light Rain
9:11 AM 35.6 °F 29.9 °F 35.6 °F 100% 30.19 in 10.0 mi SW 6.9 mph - 0.00 in Rain Light Rain
9:24 AM 35.6 °F 31.7 °F 35.6 °F 100% 30.19 in 8.0 mi SW 4.6 mph - 0.00 in Rain Light Rain
9:31 AM 35.6 °F 31.7 °F 35.6 °F 100% 30.18 in 7.0 mi SW 4.6 mph - 0.00 in Rain Light Rain
9:40 AM 35.6 °F 31.7 °F 35.6 °F 100% 30.18 in 7.0 mi SSW 4.6 mph - 0.00 in Rain Light Rain
9:48 AM 35.6 °F 31.7 °F 35.6 °F 100% 30.18 in 7.0 mi SSW 4.6 mph - 0.00 in Rain Light Rain
9:56 AM 35.6 °F 30.7 °F 35.6 °F 100% 30.18 in 9.0 mi SSW 5.8 mph - N/A Rain Light Rain
10:03 AM 35.6 °F 30.7 °F 35.6 °F 100% 30.18 in 10.0 mi SSW 5.8 mph - 0.00 in Rain Light Rain
10:56 AM 34.9 °F 29.0 °F 34.9 °F 100% 30.19 in 10.0 mi SSW 6.9 mph - 0.01 in Rain Light Rain
11:36 AM 35.6 °F 32.8 °F 35.6 °F 100% 30.16 in 9.0 mi SSW 3.5 mph - 0.02 in Rain Light Rain
11:56 AM 36.9 °F 33.1 °F 36.0 °F 97% 30.18 in 10.0 mi South 4.6 mph - 0.02 in Rain Light Rain
12:56 PM 37.9 °F 32.1 °F 36.0 °F 93% 30.15 in 10.0 mi SE 8.1 mph - 0.00 in   Overcast
1:11 PM 37.4 °F 31.4 °F 35.6 °F 93% 30.13 in 10.0 mi SE 8.1 mph - N/A   Overcast
1:56 PM 37.9 °F 30.9 °F 36.0 °F 93% 30.14 in 10.0 mi SE 10.4 mph - N/A   Overcast
2:56 PM 37.9 °F 29.6 °F 36.9 °F 96% 30.12 in 10.0 mi SE 13.8 mph - 0.01 in   Overcast
3:56 PM 39.2 °F 32.5 °F 37.4 °F 93% - 10.0 mi South 10.4 mph - N/A Rain Light Rain
4:56 PM 41.0 °F - 36.9 °F 85% - 10.0 mi North - - 0.00 in   Overcast
5:56 PM 39.9 °F 33.4 °F 36.0 °F 86% - 10.0 mi SSW 10.4 mph - 0.00 in Rain Light Rain
6:41 PM 37.4 °F 30.8 °F 35.6 °F 93% - 10.0 mi SSW 9.2 mph - 0.00 in Rain Light Rain
6:56 PM 38.8 °F 32.1 °F 36.9 °F 93% - 10.0 mi SW 10.4 mph - 0.00 in Rain Light Rain
7:12 PM 37.4 °F 30.3 °F 37.4 °F 100% - 10.0 mi West 10.4 mph - 0.01 in Rain Light Rain
7:56 PM 36.9 °F 30.7 °F 36.0 °F 97% - 10.0 mi West 8.1 mph - 0.01 in Rain Light Rain
8:33 PM 35.6 °F 26.2 °F 35.6 °F 100% - 9.0 mi West 15.0 mph - 0.00 in Rain Light Rain
8:42 PM 35.6 °F 27.1 °F 33.8 °F 93% - 9.0 mi West 12.7 mph - 0.00 in Rain Light Rain
8:48 PM 35.6 °F 27.5 °F 33.8 °F 93% - 6.0 mi WSW 11.5 mph - 0.00 in Rain Light Rain
8:56 PM 34.9 °F 26.6 °F 34.0 °F 97% - 3.0 mi WSW 11.5 mph - 0.00 in Rain Light Rain
9:56 PM 32.9 °F 22.8 °F 32.0 °F 96% - 3.0 mi WSW 15.0 mph - 0.01 in Snow Light Snow
10:07 PM 33.8 °F 23.5 °F 32.0 °F 93% - 2.5 mi WSW 16.1 mph 21.9 mph 0.00 in Snow Light Snow
10:23 PM 32.0 °F 21.2 °F 32.0 °F 100% - 1.5 mi WSW 16.1 mph - 0.00 in Snow Light Snow
10:33 PM 32.0 °F 21.2 °F 32.0 °F 100% - 3.0 mi WSW 16.1 mph - 0.00 in Snow Light Snow
10:56 PM 32.0 °F 21.2 °F 32.0 °F 100% - 5.0 mi WSW 16.1 mph - 0.00 in Snow Light Snow
11:03 PM 33.8 °F 23.5 °F 32.0 °F 93% - 2.5 mi WSW 16.1 mph - 0.00 in Snow Light Snow
11:34 PM 33.8 °F 23.2 °F 33.8 °F 100% - 3.0 mi WSW 17.3 mph - 0.00 in Rain Light Rain
11:41 PM 33.8 °F 23.2 °F 33.8 °F 100% - 1.8 mi WSW 17.3 mph - 0.00 in Rain Light Rain
11:56 PM 32.9 °F 22.4 °F 32.9 °F 100% 30.07 in 3.0 mi WSW 16.1 mph - 0.00 in Rain Light Rain